DW2363 Weather Reports


time (UTC)temp
C
wind
direction
speed
KPH
gust
KPH
rain 1hr
cm
rain 24hr
cm
rain mn
cm
humidity
%
barometer
mb
20260503201002 12 200 14.5 24.1 0.00 0.00 0.00 82 1013.0
20260503200502 12 200 12.9 22.5 0.00 0.00 0.00 84 1013.4
20260503200002 12 184 11.3 22.5 0.00 0.00 0.00 82 1013.2
20260503195501 12 192 11.3 22.5 0.00 0.00 0.00 85 1013.2
20260503195001 12 182 12.9 20.9 0.00 0.00 0.00 85 1013.2
20260503194500 12 151 12.9 24.1 0.00 0.00 0.00 87 1013.4
20260503194000 12 140 12.9 25.7 0.00 0.00 0.00 85 1013.5
20260503193500 12 176 12.9 25.7 0.00 0.00 0.00 86 1013.4
20260503193000 12 169 12.9 22.5 0.00 0.00 0.00 86 1013.4
20260503192459 12 187 12.9 20.9 0.00 0.00 0.00 87 1013.4
20260503192000 11 190 14.5 24.1 0.00 0.00 0.00 88 1013.4
20260503191500 12 151 12.9 24.1 0.00 0.00 0.00 90 1013.4
20260503190959 12 165 12.9 27.4 0.00 0.00 0.00 92 1013.4
20260503190500 11 161 12.9 27.4 0.00 0.00 0.00 94 1013.5
20260503185957 11 184 12.9 25.7 0.00 0.00 0.00 95 1013.6
20260503185457 11 195 12.9 25.7 0.00 0.00 0.00 96 1013.6
20260503185001 10 180 14.5 27.4 0.00 0.00 0.00 96 1013.6
20260503184957 10 152 14.5 25.7 0.00 0.00 0.00 96 1013.6
20260503184607 10 173 12.9 27.4 0.00 0.00 0.00 97 1013.6
20260503183458 10 155 12.9 22.5 0.00 0.00 0.00 97 1013.6
20260503182958 10 178 11.3 22.5 0.00 0.00 0.00 97 1013.7
20260503182458 10 162 11.3 22.5 0.00 0.00 0.00 97 1013.7
20260503181957 10 155 11.3 22.5 0.00 0.00 0.00 98 1013.8
20260503181458 10 168 9.7 22.5 0.00 0.00 0.00 98 1013.7
20260503180958 10 136 11.3 20.9 0.00 0.00 0.00 98 1013.7
20260503180458 10 98 11.3 22.5 0.00 0.00 0.00 98 1013.7
20260503175957 10 162 9.7 22.5 0.00 0.00 0.00 98 1013.7
20260503175458 9 175 9.7 16.1 0.00 0.00 0.00 98 1013.8
20260503175002 9 179 8.0 16.1 0.00 0.00 0.00 98 1013.8
20260503174958 9 188 9.7 16.1 0.00 0.00 0.00 98 1013.9
20260503173958 9 171 9.7 16.1 0.00 0.00 0.00 98 1013.9
20260503173458 9 171 11.3 16.1 0.00 0.00 0.00 98 1014.0
20260503172957 9 192 11.3 16.1 0.00 0.00 0.00 98 1013.9
20260503172457 9 189 12.9 17.7 0.00 0.00 0.00 98 1013.9
20260503171957 9 184 14.5 17.7 0.00 0.00 0.00 98 1013.9
20260503171458 9 188 14.5 19.3 0.00 0.00 0.00 98 1013.8
20260503170957 8 197 14.5 19.3 0.00 0.00 0.00 98 1013.7
20260503170457 9 192 12.9 17.7 0.00 0.00 0.00 98 1013.6
20260503150455 9 165 14.5 20.9 0.00 0.00 0.00 98 1012.7
20260503150449 9 171 14.5 17.7 0.00 0.00 0.00 98 1012.7
20260503130448 9 103 8.0 16.1 0.00 0.00 0.00 97 1011.6
20260503130444 9 98 9.7 16.1 0.00 0.00 0.00 97 1011.6
20260503110443 9 107 8.0 14.5 0.00 0.00 0.00 97 1012.0
20260503090432 10 153 3.2 16.1 0.00 0.00 0.00 96 1012.2
20260503081431 10 189 9.7 16.1 0.00 0.00 0.00 96 1012.3
20260503080928 10 188 9.7 16.1 0.00 0.00 0.00 95 1012.3
20260503080428 10 180 11.3 16.1 0.00 0.00 0.00 96 1012.3
20260503072423 11 204 9.7 12.9 0.00 0.00 0.00 93 1012.3
20260503071923 11 209 6.4 11.3 0.00 0.00 0.00 92 1012.3
20260503071424 12 211 3.2 12.9 0.00 0.00 0.00 91 1012.3
20260503070921 13 13 3.2 12.9 0.00 0.00 0.00 92 1012.2
20260503070422 13 20 8.0 12.9 0.00 0.00 0.00 91 1012.1
20260503054421 16 5 1.6 4.8 0.00 0.00 0.00 77 1012.2
20260503053921 16 22 0.0 3.2 0.00 0.00 0.00 76 1012.3
20260503053422 16 115 0.0 1.6 0.00 0.00 0.00 71 1012.3
20260503052922 16 125 0.0 1.6 0.00 0.00 0.00 70 1012.5
20260503052421 16 15 0.0 3.2 0.00 0.00 0.00 70 1012.5
20260503051921 17 5 1.6 3.2 0.00 0.00 0.00 71 1012.4
20260503051424 18 58 0.0 3.2 0.00 0.00 0.00 61 1012.4
20260503051420 17 30 0.0 3.2 0.00 0.00 0.00 68 1012.3
20260503050419 18 89 0.0 3.2 0.00 0.00 0.00 52 1012.4
20260503045919 18 123 0.0 3.2 0.00 0.00 0.00 45 1012.3
20260503045419 18 123 1.6 3.2 0.00 0.00 0.00 42 1012.3
20260503044924 18 126 0.0 3.2 0.00 0.00 0.00 36 1012.3
20260503044919 18 86 0.0 3.2 0.00 0.00 0.00 39 1012.3
20260503043917 18 227 1.6 3.2 0.00 0.00 0.00 40 1012.2
20260503043422 18 226 3.2 4.8 0.00 0.00 0.00 44 1012.1
20260503043418 18 226 1.6 4.8 0.00 0.00 0.00 41 1012.2
20260503042417 18 226 3.2 6.4 0.00 0.00 0.00 42 1012.1
20260503041917 18 225 4.8 6.4 0.00 0.00 0.00 42 1012.0
20260503041415 18 224 4.8 8.0 0.00 0.00 0.00 41 1012.0
20260503040919 18 221 8.0 9.7 0.00 0.00 0.00 41 1011.7
20260503040915 18 223 6.4 8.0 0.00 0.00 0.00 41 1011.9
20260503035915 18 217 8.0 9.7 0.00 0.00 0.00 42 1011.7
20260503035419 18 219 3.2 8.0 0.00 0.00 0.00 40 1011.5
20260503035415 18 222 8.0 9.7 0.00 0.00 0.00 39 1011.5
20260503034913 18 224 6.4 9.7 0.00 0.00 0.00 42 1011.5
20260503033913 19 215 6.4 11.3 0.00 0.00 0.00 43 1011.5
20260503033415 19 226 8.0 11.3 0.00 0.00 0.00 34 1011.3
20260503033411 19 216 8.0 11.3 0.00 0.00 0.00 38 1011.4
20260503032411 19 227 9.7 14.5 0.00 0.00 0.00 34 1011.2
20260503031915 19 234 12.9 16.1 0.00 0.00 0.00 40 1011.1
20260503031911 19 236 11.3 14.5 0.00 0.00 0.00 38 1011.1
20260503030911 19 227 12.9 16.1 0.00 0.00 0.00 39 1011.0
20260503030411 18 232 14.5 17.7 0.00 0.00 0.00 44 1011.0
20260503025911 18 237 14.5 17.7 0.00 0.00 0.00 48 1010.9
20260503025412 18 231 16.1 19.3 0.00 0.00 0.00 53 1010.9
20260503024912 18 232 16.1 19.3 0.00 0.00 0.00 50 1010.9
20260503024409 18 223 16.1 19.3 0.00 0.00 0.00 59 1010.9
20260503023909 18 231 16.1 19.3 0.00 0.00 0.00 65 1010.8
20260503023415 18 221 12.9 17.7 0.00 0.00 0.00 64 1010.8
20260503023409 18 223 14.5 17.7 0.00 0.00 0.00 66 1010.8
20260503022415 18 223 12.9 16.1 0.00 0.00 0.00 67 1010.7
20260503022409 18 228 12.9 16.1 0.00 0.00 0.00 61 1010.8
20260503022020 18 220 12.9 16.1 0.00 0.00 0.00 71 1010.7
20260503022016 18 220 12.9 16.1 0.00 0.00 0.00 67 1010.8
20260503020409 18 223 11.3 16.1 0.00 0.00 0.00 74 1010.7
20260503015914 18 224 11.3 16.1 0.00 0.00 0.00 73 1010.8
20260503015908 18 227 11.3 16.1 0.00 0.00 0.00 74 1010.8
20260503014909 19 221 11.3 16.1 0.00 0.00 0.00 71 1010.8
20260503014409 20 212 9.7 14.5 0.00 0.00 0.00 68 1010.9
20260503013909 20 211 8.0 9.7 0.00 0.00 0.00 66 1010.9
20260503013409 20 217 6.4 9.7 0.00 0.00 0.00 64 1010.8
20260503012908 20 221 6.4 11.3 0.00 0.00 0.00 62 1010.8
20260503012409 20 224 8.0 14.5 0.00 0.00 0.00 62 1010.8
20260503011909 21 211 6.4 14.5 0.00 0.00 0.00 61 1010.8
20260503011407 21 201 8.0 14.5 0.00 0.00 0.00 55 1011.0
20260503010905 22 177 9.7 14.5 0.00 0.00 0.00 54 1010.8
20260503010404 22 205 9.7 14.5 0.00 0.00 0.00 44 1010.9
20260503005905 23 184 8.0 14.5 0.00 0.00 0.00 43 1011.0
20260503005405 23 190 8.0 14.5 0.00 0.00 0.00 44 1010.9
20260503004905 23 190 8.0 11.3 0.00 0.00 0.00 43 1010.8
20260503004408 24 196 3.2 6.4 0.00 0.00 0.00 43 1010.9
20260503004404 23 192 6.4 11.3 0.00 0.00 0.00 42 1011.0
20260503003408 24 202 0.0 6.4 0.00 0.00 0.00 49 1011.0
20260503003404 24 207 1.6 6.4 0.00 0.00 0.00 44 1011.1
20260503002402 24 153 1.6 6.4 0.00 0.00 0.00 50 1010.9
20260503001904 24 160 3.2 8.0 0.00 0.00 0.00 47 1011.0
20260503001900 24 151 3.2 8.0 0.00 0.00 0.00 51 1011.0
20260503001508 24 155 1.6 6.4 0.00 0.00 0.00 46 1011.1
20260503001007 24 131 1.6 6.4 0.00 0.00 0.00 50 1011.1
20260502235900 24 113 1.6 6.4 0.00 0.00 0.00 53 1011.0
20260502235400 24 42 1.6 4.8 0.00 0.00 0.00 51 1011.1
20260502234901 25 44 1.6 4.8 0.00 0.00 0.00 49 1011.1
20260502234404 25 43 1.6 6.4 0.00 0.00 0.00 45 1011.1
20260502234400 24 39 1.6 4.8 0.00 0.00 0.00 42 1011.1
20260502233401 25 19 1.6 6.4 0.00 0.00 0.00 42 1011.1
20260502232905 24 331 1.6 8.0 0.00 0.00 0.00 47 1011.2
20260502232900 25 28 1.6 6.4 0.00 0.00 0.00 42 1011.1
20260502231905 24 28 1.6 9.7 0.00 0.00 0.00 46 1011.3
20260502231901 24 349 1.6 9.7 0.00 0.00 0.00 44 1011.2
20260502231504 24 355 1.6 9.7 0.00 0.00 0.00 51 1011.2
20260502230359 24 0 1.6 9.7 0.00 0.00 0.00 48 1011.4
20260502225859 23 94 1.6 11.3 0.00 0.00 0.00 50 1011.4
20260502225358 23 311 3.2 11.3 0.00 0.00 0.00 55 1011.5
20260502224859 23 17 4.8 12.9 0.00 0.00 0.00 55 1011.4
20260502224358 23 332 4.8 12.9 0.00 0.00 0.00 54 1011.5
20260502223858 24 312 3.2 9.7 0.00 0.00 0.00 56 1011.6
20260502223357 24 265 3.2 6.4 0.00 0.00 0.00 57 1011.9
20260502222856 24 285 1.6 6.4 0.00 0.00 0.00 56 1012.1
20260502222400 24 316 1.6 8.0 0.00 0.00 0.00 57 1012.1
20260502222356 24 40 1.6 6.4 0.00 0.00 0.00 57 1012.0
20260502222003 24 29 1.6 8.0 0.00 0.00 0.00 57 1012.2
20260502220856 24 349 1.6 9.7 0.00 0.00 0.00 59 1012.2
20260502220401 24 26 3.2 11.3 0.00 0.00 0.00 60 1012.4
20260502220357 24 198 1.6 9.7 0.00 0.00 0.00 59 1012.3
20260502215856 24 321 1.6 11.3 0.00 0.00 0.00 61 1012.5
20260502214854 24 124 1.6 6.4 0.00 0.00 0.00 62 1012.5
20260502214354 23 33 1.6 11.3 0.00 0.00 0.00 61 1012.6
20260502213858 23 43 3.2 8.0 0.00 0.00 0.00 63 1012.7
20260502213854 23 35 3.2 11.3 0.00 0.00 0.00 61 1012.7
20260502212852 23 52 3.2 8.0 0.00 0.00 0.00 64 1012.8
20260502212352 23 100 3.2 8.0 0.00 0.00 0.00 65 1012.8
20260502211851 22 100 1.6 8.0 0.00 0.00 0.00 66 1012.9
20260502211351 22 177 1.6 4.8 0.00 0.00 0.00 69 1012.9
20260502210851 21 277 3.2 9.7 0.00 0.00 0.00 69 1013.0
20260502210351 21 264 3.2 9.7 0.00 0.00 0.00 69 1013.0
20260502205854 21 247 1.6 8.0 0.00 0.00 0.00 69 1013.1
20260502205848 21 209 1.6 6.4 0.00 0.00 0.00 69 1013.2
20260502204848 21 209 1.6 8.0 0.00 0.00 0.00 70 1013.2
20260502204348 21 209 1.6 8.0 0.00 0.00 0.00 68 1013.2
20260502203848 21 229 3.2 9.7 0.00 0.00 0.00 67 1013.2
20260502203354 22 162 4.8 14.5 0.00 0.00 0.00 65 1013.2
20260502203348 22 171 3.2 9.7 0.00 0.00 0.00 66 1013.1
20260502202348 22 220 6.4 14.5 0.00 0.00 0.00 65 1013.2
20260502201848 22 24 4.8 14.5 0.00 0.00 0.00 64 1013.2